Miscellaneous Local Product
Issued by NWS North Platte, NE

Home | Current Version | Previous Version | Text Only | Print | Product List | Glossary On
Versions: 1 2 3 4 5 6 7 8 9 10 11 12 13 14 15 16 17 18 19 20 21 22 23 24 25 26 27 28 29 30 31 32 33 34 35 36 37 38 39 40 41 42 43 44 45 46 47 48 49 50
000
AXUS43 KLBF 222110
MISLBF


WESTERN AND NORTH CENTRAL NEBRASKA HOURLY WEATHER ROUNDUP
NATIONAL WEATHER SERVICE NORTH PLATTE NE
400 PM CDT TUE JUL 22 2014

***STATIONS NOT REPORTING VARIABLES SUCH AS SKY/WEATHER OR
PRESSURE ARE PROVIDED BY THE NEBRASKA DEPARTMENT OF
ROADS...RAWS...AND APRS NETWORKS...AND ARE NOT UNDER
NATIONAL WEATHER SERVICE QUALITY CONTROL***

...OBSERVATIONS IN AND NEAR THE EASTERN PANHANDLE OF NEBRASKA...

CITY           SKY/WX    TMP DP  RH WIND       PRES   REMARKS
PINE RIDGE     SUNNY     85  62  46 E9        30.23F
CHADRON        SUNNY     92  58  31 E10       30.20F HX  91
ALLIANCE       SUNNY     92  50  23 S9G21     30.24F
SIDNEY         SUNNY     95  49  20 SE10G16   30.27S HX  92
WHITECLAY        N/A     87  58  37 E7          N/A
RUSHVILLE        N/A     93  54  26 SE9         N/A  HX  91
GORDON           N/A     91  60  35 E12         N/A  HX  90
CRESCENT LAKE    N/A     93  55  27 SE5         N/A  HX  91
LISCO            N/A     94  46  18 E8          N/A  HX  91
BIG SPRINGS      N/A     87  65  48 NE8         N/A
$$

...OBSERVATIONS IN NORTH CENTRAL NEBRASKA...

CITY           SKY/WX    TMP DP  RH WIND       PRES   REMARKS
VALENTINE      SUNNY     86  61  42 E8        30.22F
THEDFORD       SUNNY     89  61  37 NE8       30.22S
AINSWORTH      SUNNY     82  59  45 NE7       30.23S
O`NEILL        MOSUNNY   83  62  49 N9        30.21R
ORD            SUNNY     88  64  44 NE9       30.15S
BROKEN BOW     SUNNY     90  65  43 NE12      30.18S HX  92
BROWNLEE         N/A     92  63  37 SE3         N/A  HX  93
SPRINGVIEW       N/A     83  63  50 NE5         N/A
DUNNING          N/A     87  61  40 E12         N/A
ROSE             N/A     89  68  49 N7          N/A  HX  92
NEWPORT          N/A     83  63  51 NE8         N/A
SARGENT          N/A     89  64  43 NE5G12      N/A  HX  90
COMSTOCK         N/A     93  69  45 E8          N/A  HX  98
CHAMBERS         N/A     84  67  55 N5          N/A
$$

...OBSERVATIONS IN SOUTHWEST NEBRASKA AND FAR NORTHEAST COLORADO...

CITY           SKY/WX    TMP DP  RH WIND       PRES   REMARKS
WRAY             N/A     96  55  25 E12G18    30.20F HX  94
HOLYOKE        FAIR      95  59  30 E8        30.23F HX  94
IMPERIAL       SUNNY     95  57  27 E12       30.19S HX  94
OGALLALA       SUNNY     90  57  33 E12G17    30.21S
NORTH PLATTE   SUNNY     92  62  36 SE9       30.17S HX  92
MCCOOK         SUNNY     93  67  42 NE9G21    30.14S HX  96
LEXINGTON      SUNNY     91  63  39 NE13      30.15F HX  92
PAXTON           N/A     89  64  43 E5          N/A  HX  90
SUTHERLAND       N/A     94  63  35 E9          N/A  HX  95
BRADY            N/A     91  62  38 N7          N/A  HX  91
GOTHENBURG       N/A     89  58  34 E8          N/A
CALLAWAY         N/A     89  73  58 E7          N/A  HX  96
$$

...NORTH PLATTE AREA...

CITY           SKY/WX    TMP DP  RH WIND       PRES   REMARKS
AIRPORT        SUNNY     92  62  36 SE9       30.17S HX  92
$$

...SOME WEATHER OBSERVATIONS FROM AROUND THE REGION...

CITY           SKY/WX    TMP DP  RH WIND       PRES   REMARKS
DENVER         MOSUNNY   92  46  20 VRB7      30.30F
LARAMIE        SUNNY     85  30  13 VRB5      30.42F
CHEYENNE       SUNNY     85  52  32 VRB7      30.37F
SCOTTSBLUFF    SUNNY     92  58  31 E12       30.23F HX  91
RAPID CITY     SUNNY     85  60  42 SE14      30.23S
PIERRE         SUNNY     88  57  34 VRB6      30.17S
WINNER         FAIR      86  61  42 VRB3      30.20S
SIOUX FALLS    MOSUNNY   81  61  50 NE9       30.16R
OMAHA          MOSUNNY   89  70  53 N18       30.06R HX  94
GRAND ISLAND   SUNNY     89  65  44 NE14      30.13F HX  91
KANSAS CITY    MOSUNNY   94  74  52 SW10      30.00F HX 104
WICHITA        MOSUNNY   97  71  42 S7        30.04F HX 104
HAYS           SUNNY     97  66  36 SE6       30.09S HX 100
LIBERAL        SUNNY     97  66  36 S12       30.13F HX 100
GOODLAND       SUNNY     95  60  31 SE8       30.18S HX  95
$$



USA.gov is the U.S. government's official web portal to all federal, state and local government web resources and services.